Location: Biharia
(46.4333°N, 22.8000°E)
Time: 05:02:49
(UTC+00:00)

Okean-O - Pass Details

Date: 30 May 2022
Orbit: 638 x 640 km, 98.1° (Epoch: 01 July)

Event Time Altitude Azimuth Distance (km) Brightness Sun altitude
Rises 18:39:19 0° 188° (S) 2,931 5.7 -4.6°
Reaches altitude 10° 18:41:41 10° 198° (SSW) 2,027 5.0 -5.0°
Maximum altitude 18:45:42 34° 263° (W) 1,064 4.3 -5.5°
Drops below altitude 10° 18:49:45 10° 329° (NNW) 2,041 6.7 -6.0°
Sets 18:52:08 0° 339° (NNW) 2,955 7.3 -6.3°
